"Pseudo-MPEC" for TTT0000

Created 2024 Oct 4 21:22:30 UT using Find_Orb

Click here for an explanation of pseudo-MPECs

 
 Astrometry: 
     TTT0000*KC2024 09 13.19524 03 03 06.10 -04 42 36.1    ~9P1Mx22.5 VqNEOCPY65
     TTT0000 KC2024 09 13.20828 03 03 04.01 -04 42 54.1    ~9P1M 22.7 VqNEOCPY65
     TTT0000 KC2024 09 13.22092 03 03 02.02 -04 43 12.1    ~9P1M 22.8 VqNEOCPY65
     TTT0000 KB2024 09 16.14991 02 54 30.68 -05 58 14.7    ~9P1M 22.1 VqNEOCPY64
     TTT0000 KB2024 09 16.16146 02 54 28.36 -05 58 36.0    ~9P1M 21.0 VqNEOCPY64
     TTT0000 KB2024 09 16.17326 02 54 26.15 -05 58 55.2    ~9P1M 21.3 VqNEOCPY64

Station data:
(Y64) Transient Survey Telescope, Teide  (N28.298930 W16.510390)  Canary
   Islands (Spain).
(Y65) Two-Meter Twin Telescope, TTT1, Teide  (N28.298728 W16.509580)  Canary
   Islands (Spain).

Orbital elements:  TTT0000
   Perihelion 2025 Jan 11.65197 TT = 15:38:50 (JD 2460687.15197)
Epoch 2024 Sep 16.0 TT = JDT 2460569.5   Earth MOID: 0.0136   Ma: 0.0989
M 225.81990300                      (J2000 ecliptic)             AutoNEOCP
n   1.14048324     Peri.  161.20034
a   0.90728439     Node     4.10229
e   0.9258348      Incl.  130.32363
P   0.864/315.650d H   19.96    G   0.15   q 0.06728884  Q 1.74727995
5 of 6 observations 2024 Sept. 13-16; mean residual 0".80
Residuals in arcseconds: 
240913 Y65( 1.4-  1.2-)   240913 Y65  .64+  .20+    240916 Y64  .80-  .83-    
240913 Y65  .64-  .21-    240916 Y64  .51+  1.7+    240916 Y64  .29+  .90-    

Ephemerides (geocentric):
Date (UTC) HH   RA             Dec           delta  r     elong  mag
---- --------  ------------   ------------  ------ ------ -----  ---
2024 10 04 21  01 18 04.959   -16 39 50.82  .61650 1.5860 157.0 20.7
2024 10 04 22  01 17 46.762   -16 41 22.04  .61626 1.5858 157.0 20.7
2024 10 04 23  01 17 28.546   -16 42 53.19  .61603 1.5856 157.0 20.7
2024 10 05 00  01 17 10.309   -16 44 24.26  .61579 1.5853 157.0 20.7
2024 10 05 01  01 16 52.053   -16 45 55.25  .61556 1.5851 157.0 20.7
2024 10 05 02  01 16 33.776   -16 47 26.16  .61532 1.5849 157.0 20.7
2024 10 05 03  01 16 15.479   -16 48 57.00  .61509 1.5846 157.0 20.7
2024 10 05 04  01 15 57.163   -16 50 27.75  .61486 1.5844 157.0 20.7
2024 10 05 05  01 15 38.826   -16 51 58.42  .61463 1.5842 157.0 20.7
2024 10 05 06  01 15 20.470   -16 53 29.01  .61440 1.5839 157.0 20.7
2024 10 05 07  01 15 02.094   -16 54 59.52  .61417 1.5837 157.0 20.7
2024 10 05 08  01 14 43.699   -16 56 29.94  .61395 1.5835 157.0 20.7
2024 10 05 09  01 14 25.284   -16 58 00.28  .61372 1.5832 157.0 20.7
2024 10 05 10  01 14 06.849   -16 59 30.54  .61350 1.5830 157.0 20.7
2024 10 05 11  01 13 48.396   -17 01 00.70  .61328 1.5827 157.0 20.7
2024 10 05 12  01 13 29.922   -17 02 30.78  .61306 1.5825 157.0 20.7
2024 10 05 13  01 13 11.430   -17 04 00.77  .61284 1.5823 157.0 20.7
2024 10 05 14  01 12 52.919   -17 05 30.67  .61263 1.5820 157.0 20.7
2024 10 05 15  01 12 34.388   -17 07 00.48  .61241 1.5818 157.0 20.7
2024 10 05 16  01 12 15.839   -17 08 30.20  .61220 1.5816 157.0 20.7
2024 10 05 17  01 11 57.270   -17 09 59.82  .61198 1.5813 157.0 20.7
2024 10 05 18  01 11 38.683   -17 11 29.36  .61177 1.5811 157.0 20.7
2024 10 05 19  01 11 20.077   -17 12 58.80  .61156 1.5808 157.0 20.7
2024 10 05 20  01 11 01.452   -17 14 28.14  .61135 1.5806 156.9 20.7
2024 10 05 21  01 10 42.809   -17 15 57.39  .61115 1.5804 156.9 20.7
2024 10 05 22  01 10 24.147   -17 17 26.54  .61094 1.5801 156.9 20.7
2024 10 05 23  01 10 05.467   -17 18 55.59  .61074 1.5799 156.9 20.7
2024 10 06 00  01 09 46.768   -17 20 24.55  .61053 1.5796 156.9 20.7
2024 10 06 01  01 09 28.051   -17 21 53.40  .61033 1.5794 156.9 20.7
2024 10 06 02  01 09 09.316   -17 23 22.16  .61013 1.5792 156.9 20.7
2024 10 06 03  01 08 50.563   -17 24 50.81  .60993 1.5789 156.9 20.7
2024 10 06 04  01 08 31.792   -17 26 19.36  .60974 1.5787 156.8 20.7
2024 10 06 05  01 08 13.003   -17 27 47.81  .60954 1.5784 156.8 20.7
2024 10 06 06  01 07 54.196   -17 29 16.15  .60935 1.5782 156.8 20.7
2024 10 06 07  01 07 35.371   -17 30 44.39  .60915 1.5780 156.8 20.7
2024 10 06 08  01 07 16.528   -17 32 12.53  .60896 1.5777 156.8 20.7
2024 10 06 09  01 06 57.668   -17 33 40.55  .60877 1.5775 156.8 20.7
2024 10 06 10  01 06 38.791   -17 35 08.47  .60858 1.5772 156.7 20.7
2024 10 06 11  01 06 19.896   -17 36 36.28  .60840 1.5770 156.7 20.7
2024 10 06 12  01 06 00.983   -17 38 03.98  .60821 1.5767 156.7 20.7
2024 10 06 13  01 05 42.054   -17 39 31.57  .60803 1.5765 156.7 20.7
2024 10 06 14  01 05 23.107   -17 40 59.05  .60784 1.5763 156.7 20.7
2024 10 06 15  01 05 04.143   -17 42 26.42  .60766 1.5760 156.7 20.7
2024 10 06 16  01 04 45.162   -17 43 53.67  .60748 1.5758 156.6 20.7
2024 10 06 17  01 04 26.165   -17 45 20.81  .60730 1.5755 156.6 20.7
2024 10 06 18  01 04 07.150   -17 46 47.83  .60713 1.5753 156.6 20.7
2024 10 06 19  01 03 48.119   -17 48 14.74  .60695 1.5750 156.6 20.7
2024 10 06 20  01 03 29.071   -17 49 41.53  .60678 1.5748 156.5 20.7